Location: *
(29.1167°S, 130.0000°E)
Time: 02:57:04
(UTC+00:00)

Cosmos 2322 Rocket - Pass Details

Date: 21 July 2019
Orbit: 833 x 850 km, 71.0° (Epoch: 20 August)

Event Time Altitude Azimuth Distance (km) Brightness Sun altitude
Rises 10:09:02 0° 209° (SSW) 3,419 5.6 -18.8°
Reaches altitude 10° 10:11:36 10° 215° (SW) 2,481 4.9 -19.3°
Maximum altitude 10:16:55 42° 284° (WNW) 1,195 3.5 -20.4°
Drops below altitude 10° 10:22:13 10° 354° (N) 2,464 4.8 -21.6°
Sets 10:24:46 0° 0° (N) 3,394 5.5 -22.1°
